Tracking 18852 objects as of 23-Nov-2017
HD Live streaming from Space Station
objects crossing your sky now

GLOBALSTAR M035

Track GLOBALSTAR M035 now!
10-day predictions
GLOBALSTAR M035 is classified as:


NORAD ID: 25851
Int'l Code: 1999-037A
Perigee: 2,134.0 km
Apogee: 2,158.1 km
Inclination: 52.0 °
Period: 130.4 minutes
Semi major axis: 8517 km
RCS: 2.2769 m2 (large)
Launch date: July 10, 1999
Source: Globalstar (GLOB)
Launch site: AIR FORCE EASTERN TEST RANGE (AFETR)
aabbcc
Your satellite tracking list
Your tracking list is empty




NASA's NSSDC Master Catalog

Two Line Element Set (TLE):
1 25851U 99037A   17326.61156830 -.00000111 +00000-0 -17922-2 0  9996
2 25851 051.9941 097.7823 0014133 179.7001 264.3272 11.04505641790880
Source of the keplerian elements: AFSPC